When you browse on this site, cookies collect data to enhance your experience and personalize the content and advertising you see.
Visit our Privacy Policy to learn more. By continuing to use the site, you agree to this use of cookies and data.
  • în România
  • Lista ţărilor
  • Pe 7 zile
  • Temperatura apei
  • Hartă satelitară
  • Meteo pe hartă
  • Widget-uri
  • user-avatar
    Intrare

    Meteo pe oră la Kolesnye Gorki

    Astăzi, 19 Martie, Marţi

    Timp Temperatura Precipitaţii Vânt Presiune Umiditate
    00:00 +1°C° 0.2 mm 4 m/s 745 mmHg 91%
    01:00 +1°C° 0.2 mm 4 m/s 746 mmHg 92%
    02:00 +2°C° 0.2 mm 3 m/s 746 mmHg 93%
    03:00 +1°C° 0.4 mm 3 m/s 746 mmHg 94%
    04:00 +2°C° 0.4 mm 2 m/s 746 mmHg 95%
    05:00 +2°C° 0.4 mm 2 m/s 745 mmHg 97%
    06:00 +2°C° 0.1 mm 2 m/s 746 mmHg 96%
    07:00 +2°C° 0.1 mm 2 m/s 746 mmHg 95%
    08:00 +3°C° 0.1 mm 2 m/s 746 mmHg 95%
    09:00 +4°C° 0 mm 2 m/s 746 mmHg 90%
    10:00 +5°C° 0 mm 2 m/s 747 mmHg 85%
    11:00 +5°C° 0 mm 3 m/s 747 mmHg 80%
    12:00 +5°C° 0 mm 3 m/s 747 mmHg 79%
    13:00 +5°C° 0 mm 3 m/s 747 mmHg 77%
    14:00 +7°C° 0 mm 3 m/s 747 mmHg 75%
    15:00 +5°C° 0 mm 3 m/s 747 mmHg 79%
    16:00 +4°C° 0 mm 3 m/s 747 mmHg 83%
    17:00 +4°C° 0 mm 2 m/s 748 mmHg 87%
    18:00 +3°C° 0 mm 2 m/s 748 mmHg 88%
    19:00 +2°C° 0 mm 2 m/s 748 mmHg 89%
    20:00 +2°C° 0 mm 2 m/s 748 mmHg 90%
    21:00 +1°C° 0 mm 2 m/s 748 mmHg 90%
    22:00 +1°C° 0 mm 2 m/s 748 mmHg 91%
    23:00 +1°C° 0 mm 2 m/s 748 mmHg 91%

    Mâine, 20 Martie, Miercuri

    Timp Temperatura Precipitaţii Vânt Presiune Umiditate
    00:00 +1°C° 0 mm 2 m/s 749 mmHg 91%
    01:00 -1°C° 0 mm 2 m/s 749 mmHg 91%
    02:00 -1°C° 0 mm 2 m/s 749 mmHg 92%
    03:00 -1°C° 0 mm 3 m/s 749 mmHg 92%
    04:00 -2°C° 0 mm 3 m/s 749 mmHg 92%
    05:00 -2°C° 0 mm 3 m/s 749 mmHg 93%
    06:00 -1°C° 0 mm 3 m/s 749 mmHg 90%
    07:00 -1°C° 0 mm 3 m/s 749 mmHg 87%
    08:00 -1°C° 0 mm 4 m/s 749 mmHg 83%
    09:00 0°C° 0 mm 4 m/s 750 mmHg 80%
    10:00 0°C° 0 mm 4 m/s 750 mmHg 77%
    11:00 +1°C° 0 mm 4 m/s 750 mmHg 73%
    12:00 +1°C° 0.1 mm 4 m/s 750 mmHg 73%
    13:00 +3°C° 0.1 mm 4 m/s 750 mmHg 72%
    14:00 +3°C° 0.1 mm 4 m/s 750 mmHg 72%
    15:00 +1°C° 0.1 mm 4 m/s 750 mmHg 74%
    16:00 +2°C° 0.1 mm 3 m/s 750 mmHg 77%
    17:00 +1°C° 0.1 mm 3 m/s 750 mmHg 79%
    18:00 0°C° 0 mm 3 m/s 750 mmHg 82%
    19:00 -1°C° 0 mm 3 m/s 750 mmHg 84%
    20:00 -2°C° 0 mm 3 m/s 749 mmHg 87%
    21:00 -1°C° 0 mm 3 m/s 749 mmHg 86%
    22:00 -1°C° 0 mm 3 m/s 748 mmHg 85%
    23:00 -1°C° 0 mm 3 m/s 748 mmHg 84%

    Poimâine, 21 Martie, Joi

    Timp Temperatura Precipitaţii Vânt Presiune Umiditate
    00:00 -1°C° 0.3 mm 3 m/s 747 mmHg 86%
    01:00 -2°C° 0.3 mm 4 m/s 746 mmHg 88%
    02:00 -2°C° 0.3 mm 4 m/s 745 mmHg 90%
    03:00 -2°C° 0.6 mm 4 m/s 744 mmHg 91%
    04:00 -1°C° 0.6 mm 3 m/s 744 mmHg 91%
    05:00 0°C° 0.6 mm 3 m/s 744 mmHg 92%
    06:00 0°C° 0.3 mm 3 m/s 744 mmHg 89%
    07:00 -1°C° 0.3 mm 4 m/s 744 mmHg 87%
    08:00 0°C° 0.3 mm 5 m/s 744 mmHg 85%
    09:00 0°C° 0.1 mm 5 m/s 745 mmHg 83%
    10:00 0°C° 0.1 mm 5 m/s 745 mmHg 82%
    11:00 0°C° 0.1 mm 5 m/s 746 mmHg 81%
    12:00 +1°C° 0.1 mm 5 m/s 746 mmHg 80%
    13:00 +1°C° 0.1 mm 5 m/s 747 mmHg 79%
    14:00 +1°C° 0.1 mm 5 m/s 747 mmHg 78%
    15:00 +1°C° 0 mm 4 m/s 748 mmHg 79%
    16:00 +1°C° 0 mm 3 m/s 748 mmHg 80%
    17:00 +1°C° 0 mm 3 m/s 749 mmHg 81%
    18:00 0°C° 0 mm 3 m/s 749 mmHg 84%
    19:00 -1°C° 0 mm 2 m/s 749 mmHg 87%
    20:00 -1°C° 0 mm 2 m/s 750 mmHg 90%
    21:00 -2°C° 0 mm 2 m/s 750 mmHg 91%
    22:00 -3°C° 0 mm 2 m/s 750 mmHg 92%
    23:00 -3°C° 0 mm 2 m/s 750 mmHg 94%

    22 Martie, Vineri

    Timp Temperatura Precipitaţii Vânt Presiune Umiditate
    00:00 -3°C° 0 mm 2 m/s 750 mmHg 94%
    01:00 -3°C° 0 mm 2 m/s 749 mmHg 94%
    02:00 -3°C° 0 mm 2 m/s 749 mmHg 94%
    03:00 -3°C° 0 mm 2 m/s 749 mmHg 93%
    04:00 -3°C° 0 mm 2 m/s 749 mmHg 93%
    05:00 -3°C° 0 mm 2 m/s 748 mmHg 93%
    06:00 -2°C° 0 mm 3 m/s 748 mmHg 90%
    07:00 0°C° 0 mm 3 m/s 748 mmHg 87%
    08:00 0°C° 0 mm 4 m/s 748 mmHg 85%
    09:00 +1°C° 0 mm 4 m/s 748 mmHg 84%
    10:00 +3°C° 0 mm 3 m/s 747 mmHg 83%
    11:00 +4°C° 0 mm 3 m/s 747 mmHg 82%
    12:00 +4°C° 0 mm 4 m/s 747 mmHg 81%
    13:00 +5°C° 0 mm 4 m/s 746 mmHg 80%
    14:00 +5°C° 0 mm 4 m/s 746 mmHg 79%
    15:00 +5°C° 0.4 mm 4 m/s 745 mmHg 83%
    16:00 +4°C° 0.4 mm 4 m/s 744 mmHg 87%
    17:00 +4°C° 0.4 mm 4 m/s 743 mmHg 91%
    18:00 +3°C° 0.5 mm 5 m/s 742 mmHg 91%
    19:00 +3°C° 0.5 mm 5 m/s 741 mmHg 90%
    20:00 +5°C° 0.5 mm 5 m/s 740 mmHg 90%
    21:00 +4°C° 0.4 mm 6 m/s 739 mmHg 89%
    22:00 +4°C° 0.4 mm 6 m/s 738 mmHg 88%
    23:00 +5°C° 0.4 mm 6 m/s 737 mmHg 88%

    23 Martie, Sâmbătă

    Timp Temperatura Precipitaţii Vânt Presiune Umiditate
    00:00 +4°C° 0.1 mm 6 m/s 736 mmHg 84%
    01:00 +3°C° 0.1 mm 7 m/s 736 mmHg 81%
    02:00 +3°C° 0.1 mm 7 m/s 735 mmHg 78%
    03:00 +2°C° 0 mm 7 m/s 736 mmHg 76%
    04:00 0°C° 0 mm 8 m/s 736 mmHg 73%
    05:00 -3°C° 0 mm 9 m/s 736 mmHg 71%
    06:00 -3°C° 0.1 mm 9 m/s 736 mmHg 71%
    07:00 -3°C° 0.1 mm 9 m/s 737 mmHg 71%
    08:00 -3°C° 0.1 mm 9 m/s 737 mmHg 70%
    09:00 -3°C° 0.1 mm 9 m/s 738 mmHg 69%
    10:00 -3°C° 0.1 mm 9 m/s 739 mmHg 68%
    11:00 -1°C° 0.1 mm 9 m/s 739 mmHg 67%
    12:00 -1°C° 0.1 mm 9 m/s 740 mmHg 66%
    13:00 -1°C° 0.1 mm 9 m/s 741 mmHg 65%
    14:00 -1°C° 0.1 mm 9 m/s 741 mmHg 63%
    15:00 -1°C° 0.1 mm 8 m/s 742 mmHg 64%
    16:00 -2°C° 0.1 mm 8 m/s 743 mmHg 64%
    17:00 -2°C° 0.1 mm 7 m/s 743 mmHg 64%
    18:00 -2°C° 0 mm 7 m/s 744 mmHg 66%
    19:00 -3°C° 0 mm 6 m/s 744 mmHg 68%
    20:00 -3°C° 0 mm 6 m/s 745 mmHg 70%
    21:00 -4°C° 0 mm 5 m/s 745 mmHg 72%
    22:00 -4°C° 0 mm 5 m/s 745 mmHg 75%
    23:00 -4°C° 0 mm 4 m/s 745 mmHg 77%

    24 Martie, Duminică

    Timp Temperatura Precipitaţii Vânt Presiune Umiditate
    00:00 -4°C° 0 mm 4 m/s 746 mmHg 79%
    01:00 -4°C° 0 mm 4 m/s 746 mmHg 81%
    02:00 -5°C° 0 mm 3 m/s 746 mmHg 82%
    03:00 -5°C° 0 mm 3 m/s 746 mmHg 84%
    04:00 -4°C° 0 mm 2 m/s 745 mmHg 86%
    05:00 -4°C° 0 mm 2 m/s 745 mmHg 88%
    06:00 -3°C° 0 mm 2 m/s 745 mmHg 84%
    07:00 -2°C° 0 mm 2 m/s 745 mmHg 80%
    08:00 +1°C° 0 mm 1 m/s 744 mmHg 76%
    09:00 +1°C° 0 mm 2 m/s 744 mmHg 71%
    10:00 +2°C° 0 mm 2 m/s 743 mmHg 67%
    11:00 +2°C° 0 mm 3 m/s 742 mmHg 62%
    12:00 +2°C° 0.2 mm 3 m/s 740 mmHg 65%
    13:00 +1°C° 0.2 mm 4 m/s 739 mmHg 69%
    14:00 +1°C° 0.2 mm 5 m/s 737 mmHg 72%
    15:00 0°C° 1 mm 5 m/s 736 mmHg 77%
    16:00 0°C° 1 mm 5 m/s 734 mmHg 81%
    17:00 -2°C° 1 mm 6 m/s 732 mmHg 86%
    18:00 -1°C° 1.5 mm 5 m/s 731 mmHg 88%
    19:00 -1°C° 1.5 mm 5 m/s 729 mmHg 90%
    20:00 -2°C° 1.5 mm 4 m/s 728 mmHg 92%
    21:00 -2°C° 1.1 mm 4 m/s 727 mmHg 93%
    22:00 0°C° 1.1 mm 3 m/s 727 mmHg 94%
    23:00 +1°C° 1.1 mm 2 m/s 726 mmHg 94%
    Arată mai mult